Location: Omaha
(41.2590°N, 95.9380°W)
Time: 23:59:05
(UTC-06:00)

Vanguard 3 - Pass Details

Date: 24 June 2018
Orbit: 508 x 3263 km, 33.4° (Epoch: 09 December)

Event Time Altitude Azimuth Distance (km) Brightness Sun altitude
Rises 09:42:36 0° 268° (W) 4,619 10.5 40.4°
Reaches altitude 10° 09:46:07 10° 254° (WSW) 4,035 10.4 41.1°
Maximum altitude 09:54:21 23° 207° (SSW) 3,876 10.6 42.6°
Drops below altitude 10° 10:05:45 10° 164° (SSE) 5,714 11.8 44.8°
Sets 10:12:15 0° 152° (SSE) 7,036 12.3 46.0°
